RYR2855 LHBP-LGZA

Flight info

Callsign RYR2855
Flight time 1h 42m
Altitude 32000
Route FAHAZ2L FAHAZ DCT KEROP DCT TADAM DCT AKIKA DCT LIMJA DCT PITAS UN732 KRK UT321 ASTUS DCT
Aircraft B738/M-SDE2E3FGHIRWXY/LB1

Departure

Time 2026-04-23 14:21
Airport Budapest Liszt Ferenc International Airport (LHBP)

Arrival

Time 2026-04-23 16:03
Airport Zakynthos International Airport Dionysios Solomos (LGZA)
Time Latitude Longitude Altitude Speed Heading
2026-04-23 13:59 47.43537 19.26434 456 ft 0 kts 222°
2026-04-23 14:12 47.43547 19.26449 457 ft 4 kts 231°
2026-04-23 14:12 47.43561 19.26482 454 ft 4 kts 254°
2026-04-23 14:13 47.43561 19.26517 453 ft 4 kts 306°
2026-04-23 14:13 47.43559 19.26522 455 ft 1 kts 313°
2026-04-23 14:17 47.43562 19.26517 453 ft 2 kts 313°
2026-04-23 14:17 47.43589 19.26473 457 ft 8 kts 312°
2026-04-23 14:17 47.43629 19.26409 457 ft 9 kts 311°
2026-04-23 14:17 47.43666 19.26341 457 ft 9 kts 299°
2026-04-23 14:18 47.43677 19.26240 456 ft 11 kts 267°
2026-04-23 14:18 47.43674 19.26111 456 ft 14 kts 273°
2026-04-23 14:18 47.43726 19.25982 456 ft 16 kts 303°
2026-04-23 14:18 47.43685 19.25845 456 ft 17 kts 222°
2026-04-23 14:19 47.43589 19.25715 456 ft 20 kts 223°
2026-04-23 14:19 47.43482 19.25572 455 ft 21 kts 222°
2026-04-23 14:19 47.43383 19.25439 456 ft 18 kts 223°
2026-04-23 14:19 47.43291 19.25316 456 ft 18 kts 222°
2026-04-23 14:20 47.43202 19.25196 456 ft 17 kts 221°
2026-04-23 14:20 47.43117 19.25081 456 ft 16 kts 229°
2026-04-23 14:20 47.43109 19.24926 456 ft 16 kts 300°
2026-04-23 14:20 47.43122 19.24903 455 ft 1 kts 313°
2026-04-23 14:21 47.43139 19.24877 456 ft 18 kts 313°
2026-04-23 14:21 47.43441 19.24388 451 ft 108 kts 312°
2026-04-23 14:21 47.44102 19.23331 677 ft 161 kts 313°
2026-04-23 14:21 47.44903 19.21991 1422 ft 183 kts 313°
2026-04-23 14:22 47.45782 19.20548 2426 ft 195 kts 314°
2026-04-23 14:22 47.46716 19.19049 3328 ft 200 kts 314°
2026-04-23 14:22 47.47669 19.17512 4218 ft 205 kts 314°
2026-04-23 14:22 47.48559 19.15688 4708 ft 239 kts 296°
2026-04-23 14:23 47.48903 19.13245 5616 ft 256 kts 275°
2026-04-23 14:23 47.48523 19.10587 6572 ft 278 kts 250°
2026-04-23 14:23 47.47350 19.08238 7626 ft 291 kts 225°
2026-04-23 14:23 47.45565 19.06694 8588 ft 308 kts 199°
2026-04-23 14:24 47.43418 19.06387 9640 ft 313 kts 173°
2026-04-23 14:24 47.41294 19.07111 10631 ft 318 kts 161°
2026-04-23 14:24 47.39106 19.08210 11011 ft 346 kts 158°
2026-04-23 14:24 47.36781 19.09485 11556 ft 363 kts 157°
2026-04-23 14:25 47.34391 19.10807 12457 ft 369 kts 157°
2026-04-23 14:25 47.31972 19.12127 13454 ft 373 kts 157°
2026-04-23 14:25 47.29515 19.13445 14346 ft 378 kts 157°
2026-04-23 14:25 47.27026 19.14759 15231 ft 382 kts 157°
2026-04-23 14:26 47.24510 19.16074 16122 ft 385 kts 158°
2026-04-23 14:26 47.22006 19.17373 16984 ft 389 kts 158°
2026-04-23 14:26 47.19440 19.18699 17838 ft 393 kts 158°
2026-04-23 14:26 47.16838 19.20040 18626 ft 398 kts 158°
2026-04-23 14:27 47.14211 19.21390 19375 ft 401 kts 158°
2026-04-23 14:27 47.11568 19.22747 20128 ft 405 kts 158°
2026-04-23 14:27 47.08896 19.24117 20838 ft 409 kts 158°
2026-04-23 14:27 47.06200 19.25498 21623 ft 411 kts 159°
2026-04-23 14:28 47.03491 19.26884 22374 ft 414 kts 159°
2026-04-23 14:28 47.00759 19.28280 23030 ft 419 kts 159°
2026-04-23 14:28 46.97976 19.29700 23570 ft 426 kts 159°
2026-04-23 14:28 46.95160 19.31139 24217 ft 427 kts 159°
2026-04-23 14:29 46.93309 19.32082 24692 ft 426 kts 159°
2026-04-23 14:29 46.89572 19.33984 25411 ft 431 kts 159°
2026-04-23 14:29 46.86730 19.35430 25500 ft 434 kts 159°
2026-04-23 14:29 46.83874 19.36881 25511 ft 435 kts 159°
2026-04-23 14:30 46.81011 19.38331 25524 ft 438 kts 158°
2026-04-23 14:30 46.78132 19.39790 25677 ft 436 kts 158°
2026-04-23 14:30 46.76192 19.40774 25891 ft 439 kts 158°
2026-04-23 14:30 46.73295 19.42241 26468 ft 441 kts 159°
2026-04-23 14:31 46.70400 19.43704 27111 ft 442 kts 158°
2026-04-23 14:31 46.67527 19.45153 27631 ft 444 kts 158°
2026-04-23 14:31 46.64597 19.46629 28150 ft 447 kts 158°
2026-04-23 14:31 46.61662 19.48107 28861 ft 444 kts 158°
2026-04-23 14:32 46.58755 19.49567 29661 ft 440 kts 158°
2026-04-23 14:32 46.55864 19.51018 30328 ft 438 kts 158°
2026-04-23 14:32 46.52977 19.52467 30844 ft 438 kts 158°
2026-04-23 14:32 46.50097 19.53912 31370 ft 437 kts 158°
2026-04-23 14:33 46.47218 19.55354 31910 ft 437 kts 158°
2026-04-23 14:33 46.44323 19.56803 32000 ft 442 kts 158°
2026-04-23 14:33 46.38517 19.59702 32014 ft 437 kts 158°
2026-04-23 14:34 46.32808 19.62546 32032 ft 438 kts 158°
2026-04-23 14:34 46.27012 19.65430 32027 ft 442 kts 158°
2026-04-23 14:35 46.21187 19.68282 32019 ft 442 kts 161°
2026-04-23 14:35 46.15079 19.69289 32011 ft 445 kts 181°
2026-04-23 14:36 46.08947 19.68299 32015 ft 443 kts 185°
2026-04-23 14:36 46.02844 19.67204 32022 ft 440 kts 185°
2026-04-23 14:37 45.96760 19.66170 32031 ft 439 kts 184°
2026-04-23 14:37 45.90720 19.65182 32031 ft 440 kts 184°
2026-04-23 14:38 45.84627 19.64197 32029 ft 441 kts 184°
2026-04-23 14:38 45.78519 19.63211 32031 ft 442 kts 184°
2026-04-23 14:39 45.72405 19.62225 32032 ft 442 kts 184°
2026-04-23 14:39 45.66319 19.61245 32047 ft 443 kts 184°
2026-04-23 14:40 45.60193 19.60261 32032 ft 443 kts 184°
2026-04-23 14:40 45.54065 19.59278 32039 ft 442 kts 184°
2026-04-23 14:41 45.47952 19.58301 32041 ft 441 kts 184°
2026-04-23 14:41 45.41886 19.57332 32046 ft 441 kts 184°
2026-04-23 14:42 45.35784 19.56361 32053 ft 441 kts 184°
2026-04-23 14:42 45.29682 19.55391 32045 ft 441 kts 184°
2026-04-23 14:43 45.23577 19.54515 32049 ft 440 kts 179°
2026-04-23 14:43 45.17467 19.54566 32051 ft 439 kts 175°
2026-04-23 14:44 45.11360 19.54812 32060 ft 439 kts 175°
2026-04-23 14:44 45.05238 19.55017 32050 ft 440 kts 176°
2026-04-23 14:45 44.99109 19.55174 32049 ft 441 kts 176°
2026-04-23 14:45 44.92973 19.55311 32057 ft 441 kts 176°
2026-04-23 14:46 44.86841 19.55444 32051 ft 441 kts 176°
2026-04-23 14:46 44.80733 19.55577 32051 ft 441 kts 176°
2026-04-23 14:47 44.74598 19.55712 32056 ft 441 kts 176°
2026-04-23 14:47 44.68464 19.55846 32056 ft 441 kts 176°
2026-04-23 14:48 44.62326 19.55981 32067 ft 441 kts 176°
2026-04-23 14:48 44.56186 19.56115 32073 ft 441 kts 176°
2026-04-23 14:49 44.50047 19.56250 32064 ft 441 kts 175°
2026-04-23 14:49 44.43905 19.56383 32076 ft 441 kts 175°
2026-04-23 14:50 44.37806 19.56516 32079 ft 441 kts 175°
2026-04-23 14:50 44.31674 19.56649 32076 ft 440 kts 175°
2026-04-23 14:51 44.25541 19.56781 32083 ft 440 kts 175°
2026-04-23 14:51 44.19422 19.56914 32085 ft 440 kts 175°
2026-04-23 14:52 44.13312 19.57044 32075 ft 439 kts 175°
2026-04-23 14:52 44.07237 19.57176 32075 ft 439 kts 175°
2026-04-23 14:53 44.01129 19.57309 32079 ft 439 kts 175°
2026-04-23 14:53 43.95000 19.57447 32080 ft 441 kts 175°
2026-04-23 14:54 43.88848 19.57574 32077 ft 443 kts 175°
2026-04-23 14:54 43.82678 19.57703 32066 ft 444 kts 175°
2026-04-23 14:55 43.76507 19.57834 32058 ft 443 kts 175°
2026-04-23 14:55 43.70350 19.57964 32062 ft 442 kts 175°
2026-04-23 14:56 43.64194 19.58094 32065 ft 441 kts 175°
2026-04-23 14:56 43.58090 19.58228 32066 ft 440 kts 174°
2026-04-23 14:57 43.51977 19.58357 32043 ft 438 kts 175°
2026-04-23 14:57 43.45878 19.58483 32065 ft 439 kts 174°
2026-04-23 14:58 43.39769 19.58617 32052 ft 440 kts 174°
2026-04-23 14:58 43.33649 19.58742 32060 ft 440 kts 174°
2026-04-23 14:59 43.27546 19.58867 32075 ft 441 kts 174°
2026-04-23 14:59 43.21395 19.58996 32058 ft 442 kts 174°
2026-04-23 15:00 43.15250 19.59124 32060 ft 441 kts 174°
2026-04-23 15:00 43.09119 19.59250 32059 ft 440 kts 174°
2026-04-23 15:01 43.03005 19.59377 32052 ft 439 kts 174°
2026-04-23 15:01 42.96899 19.59504 32043 ft 439 kts 174°
2026-04-23 15:02 42.90792 19.59631 32070 ft 439 kts 174°
2026-04-23 15:02 42.84680 19.59755 32041 ft 439 kts 173°
2026-04-23 15:03 42.78583 19.59882 32038 ft 437 kts 173°
2026-04-23 15:03 42.72494 19.60008 32026 ft 438 kts 173°
2026-04-23 15:04 42.66407 19.60133 32029 ft 437 kts 173°
2026-04-23 15:04 42.60323 19.60259 32026 ft 438 kts 173°
2026-04-23 15:05 42.54227 19.60383 32028 ft 438 kts 173°
2026-04-23 15:05 42.48134 19.60318 32032 ft 438 kts 176°
2026-04-23 15:06 42.42034 19.60024 32019 ft 437 kts 176°
2026-04-23 15:06 42.36007 19.59735 32020 ft 435 kts 176°
2026-04-23 15:07 42.29947 19.59480 32018 ft 435 kts 175°
2026-04-23 15:07 42.23899 19.59239 32035 ft 434 kts 175°
2026-04-23 15:08 42.17854 19.59001 32005 ft 435 kts 175°
2026-04-23 15:09 42.08724 19.58654 32010 ft 439 kts 175°
2026-04-23 15:09 42.02627 19.58427 31964 ft 437 kts 176°
2026-04-23 15:10 41.97587 19.58227 31999 ft 436 kts 175°
2026-04-23 15:10 41.90519 19.57951 32020 ft 438 kts 175°
2026-04-23 15:11 41.84409 19.57721 32010 ft 439 kts 175°
2026-04-23 15:11 41.78288 19.57485 32007 ft 440 kts 175°
2026-04-23 15:12 41.72163 19.57244 32023 ft 440 kts 175°
2026-04-23 15:12 41.66041 19.57008 32007 ft 440 kts 175°
2026-04-23 15:13 41.59917 19.56773 32000 ft 440 kts 175°
2026-04-23 15:13 41.53823 19.56540 32006 ft 440 kts 175°
2026-04-23 15:14 41.47704 19.56308 32012 ft 439 kts 175°
2026-04-23 15:14 41.41586 19.56074 32000 ft 439 kts 175°
2026-04-23 15:15 41.35470 19.55841 31998 ft 439 kts 175°
2026-04-23 15:15 41.29355 19.55610 32008 ft 439 kts 175°
2026-04-23 15:16 41.23259 19.55379 31998 ft 438 kts 175°
2026-04-23 15:16 41.17173 19.55149 31996 ft 437 kts 175°
2026-04-23 15:17 41.11091 19.54919 31991 ft 437 kts 175°
2026-04-23 15:17 41.05021 19.54691 31989 ft 437 kts 175°
2026-04-23 15:18 40.98979 19.54464 31984 ft 437 kts 175°
2026-04-23 15:18 40.92896 19.54236 31988 ft 436 kts 175°
2026-04-23 15:19 40.87858 19.54048 31992 ft 436 kts 176°
2026-04-23 15:19 40.81791 19.53821 31980 ft 436 kts 176°
2026-04-23 15:20 40.75722 19.53595 31976 ft 436 kts 176°
2026-04-23 15:20 40.69651 19.53370 31994 ft 436 kts 177°
2026-04-23 15:21 40.63571 19.53143 31982 ft 437 kts 177°
2026-04-23 15:21 40.57552 19.53173 31966 ft 431 kts 168°
2026-04-23 15:22 40.51845 19.55189 31982 ft 422 kts 155°
2026-04-23 15:22 40.46333 19.57879 31971 ft 423 kts 155°
2026-04-23 15:23 40.40796 19.60558 31974 ft 424 kts 156°
2026-04-23 15:23 40.35234 19.63202 31964 ft 426 kts 156°
2026-04-23 15:24 40.29683 19.65820 31968 ft 427 kts 156°
2026-04-23 15:24 40.24083 19.68456 31946 ft 428 kts 158°
2026-04-23 15:25 40.18464 19.71094 31960 ft 430 kts 157°
2026-04-23 15:25 40.12827 19.73745 31953 ft 430 kts 157°
2026-04-23 15:26 40.07207 19.76371 31948 ft 431 kts 158°
2026-04-23 15:26 40.01552 19.79014 31946 ft 432 kts 159°
2026-04-23 15:27 39.95884 19.81654 31940 ft 433 kts 160°
2026-04-23 15:27 39.90199 19.84306 31937 ft 434 kts 160°
2026-04-23 15:28 39.84544 19.87091 31944 ft 435 kts 158°
2026-04-23 15:28 39.78905 19.89972 31929 ft 436 kts 159°
2026-04-23 15:29 39.73253 19.92841 31930 ft 436 kts 159°
2026-04-23 15:29 39.67588 19.95693 31948 ft 436 kts 159°
2026-04-23 15:30 39.61919 19.98537 31945 ft 436 kts 159°
2026-04-23 15:30 39.56291 20.01357 31928 ft 437 kts 160°
2026-04-23 15:31 39.50615 20.04196 31945 ft 437 kts 160°
2026-04-23 15:31 39.44893 20.06893 31923 ft 437 kts 167°
2026-04-23 15:31 39.41910 20.07578 31925 ft 434 kts 178°
2026-04-23 15:32 39.38882 20.07788 31567 ft 436 kts 180°
2026-04-23 15:32 39.35861 20.07925 31182 ft 433 kts 181°
2026-04-23 15:32 39.32859 20.08053 30816 ft 430 kts 182°
2026-04-23 15:32 39.29864 20.08190 30460 ft 430 kts 181°
2026-04-23 15:33 39.26877 20.08341 30106 ft 430 kts 181°
2026-04-23 15:33 39.23886 20.08505 29701 ft 430 kts 181°
2026-04-23 15:33 39.20898 20.08677 29279 ft 429 kts 181°
2026-04-23 15:33 39.17953 20.08849 28867 ft 429 kts 181°
2026-04-23 15:34 39.14959 20.09026 28454 ft 429 kts 181°
2026-04-23 15:34 39.11974 20.09203 28026 ft 429 kts 183°
2026-04-23 15:34 39.08991 20.09378 27636 ft 429 kts 183°
2026-04-23 15:34 39.06010 20.09552 27241 ft 429 kts 182°
2026-04-23 15:35 39.03027 20.09725 26856 ft 429 kts 182°
2026-04-23 15:35 39.00033 20.09901 26471 ft 430 kts 182°
2026-04-23 15:35 38.97031 20.10075 26089 ft 431 kts 182°
2026-04-23 15:35 38.94029 20.10246 25723 ft 432 kts 182°
2026-04-23 15:36 38.91026 20.10415 25349 ft 432 kts 182°
2026-04-23 15:36 38.88056 20.10581 24990 ft 433 kts 182°
2026-04-23 15:36 38.85051 20.10749 24626 ft 431 kts 182°
2026-04-23 15:36 38.82059 20.10917 24270 ft 429 kts 182°
2026-04-23 15:37 38.79090 20.11085 23914 ft 426 kts 182°
2026-04-23 15:37 38.76133 20.11251 23565 ft 423 kts 182°
2026-04-23 15:37 38.73192 20.11416 23150 ft 420 kts 182°
2026-04-23 15:37 38.70278 20.11579 22704 ft 417 kts 183°
2026-04-23 15:38 38.67389 20.11743 22295 ft 413 kts 184°
2026-04-23 15:38 38.64525 20.11902 21897 ft 410 kts 183°
2026-04-23 15:38 38.61688 20.12060 21502 ft 407 kts 183°
2026-04-23 15:38 38.58870 20.12216 21106 ft 404 kts 183°
2026-04-23 15:39 38.56068 20.12371 20714 ft 402 kts 183°
2026-04-23 15:39 38.53278 20.12525 20340 ft 400 kts 182°
2026-04-23 15:39 38.50501 20.12679 19960 ft 399 kts 182°
2026-04-23 15:39 38.47769 20.12830 19577 ft 397 kts 183°
2026-04-23 15:40 38.45007 20.12984 19211 ft 396 kts 182°
2026-04-23 15:40 38.42256 20.13136 18846 ft 394 kts 182°
2026-04-23 15:40 38.39519 20.13287 18487 ft 393 kts 182°
2026-04-23 15:40 38.36789 20.13432 18118 ft 392 kts 182°
2026-04-23 15:41 38.34073 20.13567 17706 ft 390 kts 182°
2026-04-23 15:41 38.31356 20.13692 17290 ft 388 kts 182°
2026-04-23 15:41 38.28658 20.13808 16900 ft 386 kts 182°
2026-04-23 15:41 38.25975 20.13919 16487 ft 384 kts 182°
2026-04-23 15:42 38.23346 20.14025 16110 ft 382 kts 182°
2026-04-23 15:42 38.20697 20.14126 15728 ft 379 kts 182°
2026-04-23 15:42 38.18066 20.14218 15349 ft 377 kts 182°
2026-04-23 15:42 38.15449 20.14300 14976 ft 375 kts 182°
2026-04-23 15:43 38.12848 20.14372 14596 ft 373 kts 182°
2026-04-23 15:43 38.10259 20.14434 14237 ft 371 kts 182°
2026-04-23 15:43 38.07682 20.14486 13876 ft 370 kts 182°
2026-04-23 15:43 38.05112 20.14528 13498 ft 368 kts 182°
2026-04-23 15:44 38.02556 20.14561 13090 ft 365 kts 182°
2026-04-23 15:44 38.00042 20.14596 12783 ft 357 kts 182°
2026-04-23 15:44 37.97604 20.15003 12313 ft 355 kts 163°
2026-04-23 15:44 37.95418 20.16578 11030 ft 374 kts 139°
2026-04-23 15:45 37.93827 20.19297 9397 ft 398 kts 112°
2026-04-23 15:45 37.93315 20.22720 8587 ft 392 kts 88°
2026-04-23 15:45 37.93481 20.26004 8483 ft 367 kts 80°
2026-04-23 15:45 37.94016 20.29074 8341 ft 347 kts 74°
2026-04-23 15:46 37.94620 20.31963 8208 ft 331 kts 72°
2026-04-23 15:46 37.95199 20.34713 8094 ft 316 kts 74°
2026-04-23 15:46 37.95739 20.37348 7996 ft 302 kts 74°
2026-04-23 15:46 37.96242 20.39878 7901 ft 289 kts 74°
2026-04-23 15:47 37.96714 20.42306 7805 ft 279 kts 74°
2026-04-23 15:47 37.97169 20.44671 7550 ft 275 kts 75°
2026-04-23 15:47 37.97617 20.47017 7251 ft 273 kts 76°
2026-04-23 15:47 37.98059 20.49348 6997 ft 270 kts 75°
2026-04-23 15:48 37.98494 20.51649 6720 ft 268 kts 76°
2026-04-23 15:48 37.98925 20.53937 6453 ft 265 kts 76°
2026-04-23 15:48 37.99345 20.56171 6462 ft 258 kts 75°
2026-04-23 15:48 37.99762 20.58389 6463 ft 260 kts 75°
2026-04-23 15:49 37.99982 20.60689 6452 ft 268 kts 96°
2026-04-23 15:49 37.99274 20.62858 6443 ft 271 kts 127°
2026-04-23 15:49 37.97920 20.64518 6472 ft 272 kts 139°
2026-04-23 15:49 37.96465 20.66018 6469 ft 274 kts 140°
2026-04-23 15:50 37.94968 20.67532 6388 ft 277 kts 140°
2026-04-23 15:50 37.93457 20.69060 6258 ft 278 kts 141°
2026-04-23 15:50 37.91961 20.70584 6127 ft 274 kts 140°
2026-04-23 15:50 37.90488 20.72093 5982 ft 271 kts 140°
2026-04-23 15:51 37.89034 20.73586 5856 ft 268 kts 140°
2026-04-23 15:51 37.87590 20.75074 5725 ft 268 kts 140°
2026-04-23 15:51 37.86150 20.76559 5596 ft 266 kts 140°
2026-04-23 15:51 37.84732 20.78021 5470 ft 258 kts 140°
2026-04-23 15:52 37.83362 20.79434 5355 ft 250 kts 140°
2026-04-23 15:52 37.82033 20.80805 5262 ft 244 kts 141°
2026-04-23 15:52 37.80721 20.82160 5157 ft 243 kts 141°
2026-04-23 15:52 37.79414 20.83508 5040 ft 242 kts 141°
2026-04-23 15:53 37.78113 20.84848 4998 ft 240 kts 141°
2026-04-23 15:53 37.76823 20.86177 5003 ft 239 kts 141°
2026-04-23 15:53 37.75540 20.87474 4986 ft 240 kts 146°
2026-04-23 15:53 37.74001 20.88222 5007 ft 238 kts 170°
2026-04-23 15:54 37.72347 20.88339 4999 ft 239 kts 184°
2026-04-23 15:54 37.70692 20.88172 5001 ft 239 kts 186°
2026-04-23 15:54 37.69015 20.87966 4892 ft 244 kts 186°
2026-04-23 15:54 37.67324 20.87761 4728 ft 243 kts 186°
2026-04-23 15:55 37.65650 20.87566 4509 ft 240 kts 186°
2026-04-23 15:55 37.64000 20.87380 4298 ft 237 kts 186°
2026-04-23 15:55 37.62368 20.87201 4091 ft 234 kts 186°
2026-04-23 15:55 37.60756 20.87028 3888 ft 231 kts 186°
2026-04-23 15:56 37.59158 20.86858 3694 ft 228 kts 185°
2026-04-23 15:56 37.57584 20.86692 3511 ft 225 kts 186°
2026-04-23 15:56 37.56030 20.86530 3333 ft 223 kts 186°
2026-04-23 15:56 37.54494 20.86375 3149 ft 220 kts 183°
2026-04-23 15:57 37.53010 20.86753 2963 ft 218 kts 154°
2026-04-23 15:57 37.51839 20.87866 2869 ft 210 kts 131°
2026-04-23 15:57 37.51105 20.89390 2744 ft 199 kts 109°
2026-04-23 15:57 37.50891 20.91089 2636 ft 195 kts 85°
2026-04-23 15:58 37.51184 20.92694 2628 ft 185 kts 64°
2026-04-23 15:58 37.51909 20.94027 2644 ft 187 kts 43°
2026-04-23 15:58 37.52978 20.94948 2644 ft 186 kts 21°
2026-04-23 15:58 37.54205 20.95410 2635 ft 183 kts
2026-04-23 15:59 37.55459 20.95326 2613 ft 182 kts 344°
2026-04-23 15:59 37.56677 20.94905 2637 ft 182 kts 343°
2026-04-23 15:59 37.57906 20.94477 2559 ft 184 kts 343°
2026-04-23 15:59 37.59140 20.94039 2497 ft 184 kts 343°
2026-04-23 16:00 37.60346 20.93607 2403 ft 180 kts 343°
2026-04-23 16:00 37.61562 20.93168 2340 ft 182 kts 342°
2026-04-23 16:00 37.62773 20.92729 2248 ft 182 kts 342°
2026-04-23 16:00 37.63984 20.92298 2185 ft 179 kts 343°
2026-04-23 16:01 37.65182 20.91884 2098 ft 179 kts 343°
2026-04-23 16:01 37.66397 20.91463 2027 ft 181 kts 344°
2026-04-23 16:01 37.67574 20.91057 1898 ft 171 kts 342°
2026-04-23 16:01 37.68673 20.90677 1646 ft 157 kts 344°
2026-04-23 16:02 37.69693 20.90312 1414 ft 154 kts 342°
2026-04-23 16:02 37.70768 20.90000 1030 ft 158 kts 347°
2026-04-23 16:02 37.71788 20.89638 680 ft 148 kts 342°
2026-04-23 16:02 37.72762 20.89286 374 ft 140 kts 343°
2026-04-23 16:03 37.73662 20.88957 192 ft 131 kts 343°
2026-04-23 16:03 37.74543 20.88633 29 ft 131 kts 341°
2026-04-23 16:03 37.75269 20.88358 18 ft 64 kts 344°
2026-04-23 16:03 37.75446 20.88293 22 ft 14 kts 345°
2026-04-23 16:04 37.75479 20.88351 20 ft 3 kts 111°
2026-04-23 16:04 37.75469 20.88380 22 ft 4 kts 116°
2026-04-23 16:04 37.75448 20.88410 21 ft 5 kts 150°
2026-04-23 16:04 37.75413 20.88426 21 ft 6 kts 160°
2026-04-23 16:05 37.75391 20.88447 19 ft 6 kts 111°
2026-04-23 16:05 37.75407 20.88516 19 ft 4 kts 73°
2026-04-23 16:05 37.75409 20.88522 19 ft 0 kts 73°